Regional Weather Roundup
Issued by NWS

Home | Current Version | Previous Version | Text Only | Print | Product List | Glossary On
Versions: 1 2 3 4 5 6 7 8 9 10 11 12 13 14 15 16 17 18 19 20 21 22 23 24 25 26 27 28 29 30 31 32 33 34 35 36 37 38 39 40 41 42 43 44 45 46 47 48 49 50
000
ASUS43 KOAX 241410
RWRNE

WEATHER ROUNDUP FOR NEBRASKA
NATIONAL WEATHER SERVICE OMAHA NE
900 AM CDT FRI MAY 24 2019

NOTES: SATELLITE DATA IS BEING USED TO AUGMENT CLOUD COVER ABOVE
       12000 FEET.
       "FAIR" INDICATES FEW OR NO CLOUDS BELOW 12,000 FEET WITH NO
       SIGNIFICANT WEATHER AND/OR OBSTRUCTIONS TO VISIBILITY.


NEZ001>004-019>022-054>056-241500-
NEBRASKA PANHANDLE

CITY           SKY/WX    TMP DP  RH WIND       PRES   REMARKS
SCOTTSBLUFF    FAIR      52  43  71 SW13      29.84S
ALLIANCE       FAIR      49  43  80 S17       29.83S
CHADRON        FAIR      55  42  61 SW14      29.76F
GORDON         FAIR      51  44  75 SW17G24   29.79S
KIMBALL        FAIR      47  40  76 SW7       29.91F
SIDNEY         FAIR      45  40  82 SW12      29.93R
$$

NEZ057>060-069>072-079>082-241500-
SOUTHWEST NEBRASKA

CITY           SKY/WX    TMP DP  RH WIND       PRES   REMARKS
NORTH PLATTE   CLOUDY    50  46  86 W10       29.92R
IMPERIAL       FAIR      50  43  77 SW13      29.93S
LEXINGTON      CLOUDY   N/A N/A N/A SW7       29.93R HAZE
MCCOOK         FAIR      52  49  89 SW8       29.94R
OGALLALA       FAIR      49  49 100 SW9       29.92
$$

NEZ005>010-023>029-035>040-094-241500-
NORTH CENTRAL NEBRASKA

CITY           SKY/WX    TMP DP  RH WIND       PRES   REMARKS
VALENTINE      FAIR      54  46  74 SW18      29.81R
AINSWORTH      PTSUNNY   48  48 100 SW13      29.83F
BROKEN BOW     FAIR      53  50  89 SW9       29.88S
O`NEILL        PTSUNNY   57  53  87 SW9G16    29.84S
ORD            PTSUNNY   54  51  90 W9        29.87R
THEDFORD       FAIR      52  49  90 SW15      29.87F
$$

NEZ041-046>049-061>064-073>077-083>087-241500-
SOUTH CENTRAL NEBRASKA

CITY           SKY/WX    TMP DP  RH WIND       PRES   REMARKS
GRAND ISLAND   PTSUNNY   56  52  86 W13       29.90R
AURORA         CLOUDY    54  54 100 W10       29.89S
HASTINGS       PTSUNNY   55  52  89 W14       29.91S
HEBRON         CLOUDY    60  56  88 NW7       29.89F
HOLDREGE       FAIR      52  52  99 W10       29.92S
KEARNEY        FAIR      54  51  90 W9        29.91S
YORK           CLOUDY    55  54  94 W9        29.90R
$$

NEZ011>018-030>034-042>045-241500-
NORTHEAST NEBRASKA

CITY           SKY/WX    TMP DP  RH WIND       PRES   REMARKS
NORFOLK        CLOUDY    57  53  86 W14       29.83R
ALBION         CLOUDY    56  53  89 W10       29.87R
BLAIR          CLOUDY    64  63  98 S16G22    29.86F
COLUMBUS       CLOUDY    57  54  89 MISG      29.88R
FREMONT        CLOUDY    64  61  90 S9        29.86S
TEKAMAH        CLOUDY    63  60  90 S20       29.84R
WAYNE          CLOUDY    58  56  91 W12       29.83R
$$

NEZ050>053-065>068-078-088>093-241500-
SOUTHEAST NEBRASKA

CITY           SKY/WX    TMP DP  RH WIND       PRES   REMARKS
LINCOLN        CLOUDY    64  61  90 SW7       29.89R
OMAHA EPPLEY   CLOUDY    65  62  90 S12       29.87R
BEATRICE       FAIR      67  65  92 SW7       29.88F
FALLS CITY     LGT RAIN  64  63  96 E10       29.88F
NEBRASKA CITY  LGT RAIN  63  63 100 S9        29.88F
PLATTSMOUTH    CLOUDY    63  61  94 S12       29.89S
$$

NEZ044-045-051>053-067-241500-
OMAHA AREA

CITY           SKY/WX    TMP DP  RH WIND       PRES   REMARKS
OMAHA EPPLEY   CLOUDY    65  62  90 S12       29.87R
BLAIR          CLOUDY    64  63  98 S16G22    29.86F
FREMONT        CLOUDY    64  61  90 S9        29.86S
MILLARD        CLOUDY    66  63  88 S8        29.88S
OFFUTT AFB     PTSUNNY   64  61  88 S12       29.86R
PLATTSMOUTH    CLOUDY    63  61  94 S12       29.89S
WAHOO          CLOUDY    64  62  95 MISG      29.87S
$$



USA.gov is the U.S. government's official web portal to all federal, state and local government web resources and services.